Showing default

MAROC TUBSAT, 27004

Orbit data source: Space-Track

MAROC TUBSAT, 27004 is a payload satellite owned by CRTS (DE) in SSO that was launched on Mon, 10 Dec 2001 UTC via a ZENIT-2 launch vehicle from the Tyuratam Missile And Space Complex (TTMTR). Payload-class satellites include a variety of spacecraft equipped with specific instruments for various scientific and technological missions. These include communications satellites like Starlink; space stations such as the ISS; scientific satellites like the Hubble; Earth observation satellites from companies like Planet Labs, Umbra, and HawkEye 360; GPS; miniature CubeSats for education and research; and military/defense satellites.

Loading next visibility...
Identifier
27004, 2001-056D
Orbit
SSO
Country
Flag of DEDE / GER
Related business
Manufacturer
TUB
Mission
Operational Civil Imaging
Bus & Motor
TUBSAT, Unknown motor
Mass
45 kg wet, 45 kg dry
Launch date (UTC)
2001-12-10 (24 years ago)
Launch vehicle
ZENIT-2
Launch site
Tyuratam Missile And Space Complex (TTMTR)
Object type
Payload
Rocket body
Debris
Shape & HBR
Box, 1.0 m
Radar Cross Section
0.200 m², Medium (>0.1 m² and < 1m²)

Expand to show TLE details & history
Last TLE update: 14 hours ago

TLE from 14 hours ago
0 MAROC TUBSAT
1 27004U 01056D   25310.25146341 -.00000025  00000-0  24804-4 0  9992
2 27004  99.7914 118.0590 0019783 356.2045 183.3816 13.70250335195656
Epoch: 2025-11-06T06:02Z
TLE epoch observation values (Epoch: 2025-11-06T06:02:06.438Z)
Latitude
0.31018°
Longitude
161.87297°
Altitude
1,016.014 km
Speed
7.337 km/s
True Right ascension
19h 52m 26s
True Declination
0° 18' 30"
Sunlit
Object was in daylight at epoch
Visualization orbit readout
Latitude
Unknown
Longitude
Unknown
Altitude
Unknown
Speed
Unknown
Apparent Right ascension
Unknown
Apparent Declination
Unknown
Sunlit
N/A
Visualization observer readout
Local Sidereal Time
16:01:28
Azimuth
Unknown
Elevation
Unknown
Doppler factor
Unknown
Orbital elements
Apogee altitude
1,010.54 km
Perigee altitude
981.363 km
Semi-major axis
7,374.089 km
Eccentricity
0.00198
Inclination
99.7914°
RAAN
118.059°
Arg. of periapsis
356.2045°
True anomaly
183.36826°
Mean anomaly
183.3816°
Eccentric anomaly
183.37493°
Mean motion
3.42753 °/min
Orbital period
105.03 mins
BSTAR
0.000024804
Loading maneuver chart data...
Computing Atmospheric mass density...
Loading historical data...
Loading historical data...
Loading historical data...
Loading historical data...
Loading historical data...
Loading historical data...
Loading historical data...

Documentation

Showing up to 5 results
|